EW2353 Weather Reports


Display with metric or nautical units.
time (UTC)temp
F
wind
direction
speed
MPH
gust
MPH
rain 1hr
in
rain 24hr
in
rain mn
in
humidity
%
barometer
mb
20260906230330 76 56 5.0 10.0 0.00 0.04 0.01 62 1016.5
20260906225822 76 49 5.0 7.0 0.00 0.04 0.01 62 1016.6
20260906225320 76 34 5.0 9.0 0.00 0.04 0.01 62 1016.6
20260906224849 77 53 5.0 9.0 0.00 0.04 0.01 62 1016.6
20260906224321 77 39 6.0 10.0 0.00 0.04 0.01 61 1016.6
20260906223835 77 39 5.0 10.0 0.00 0.04 0.01 63 1016.6
20260906223326 78 53 5.0 9.0 0.00 0.04 0.01 62 1016.5
20260906222819 78 34 6.0 10.0 0.00 0.04 0.01 61 1016.4
20260906222332 78 18 4.0 10.0 0.00 0.04 0.01 60 1016.4
20260906221823 78 45 5.0 11.0 0.00 0.04 0.01 59 1016.4
20260906221316 78 32 5.0 12.0 0.00 0.04 0.01 58 1016.4
20260906220829 78 50 6.0 12.0 0.00 0.04 0.01 59 1016.5
20260906220326 78 10 5.0 13.0 0.00 0.04 0.01 58 1016.4
20260906215839 78 30 7.0 13.0 0.00 0.04 0.01 60 1016.5
20260906215310 79 29 8.0 13.0 0.00 0.04 0.01 59 1016.6
20260906214824 79 41 4.0 8.0 0.00 0.04 0.01 60 1016.6
20260906214316 79 41 4.0 11.0 0.00 0.04 0.01 61 1016.5
20260906213848 79 42 7.0 12.0 0.00 0.04 0.01 59 1016.5
20260906213340 79 56 7.0 12.0 0.00 0.04 0.01 58 1016.5
20260906212812 79 53 5.0 10.0 0.00 0.04 0.01 58 1016.5
20260906212345 79 63 5.0 10.0 0.00 0.04 0.01 59 1016.4
20260906211817 79 49 6.0 10.0 0.00 0.04 0.01 57 1016.4
20260906211314 79 36 5.0 10.0 0.00 0.04 0.01 58 1016.5
20260906210827 79 15 6.0 10.0 0.00 0.04 0.01 60 1016.5
20260906210319 79 37 4.0 12.0 0.00 0.04 0.01 56 1016.6
20260906205812 79 75 6.0 15.0 0.00 0.04 0.01 55 1016.7
20260906205325 79 61 8.0 15.0 0.00 0.04 0.01 55 1016.7
20260906204818 79 34 7.0 12.0 0.00 0.04 0.01 55 1016.8
20260906204310 80 39 4.0 9.0 0.00 0.04 0.01 56 1016.8
20260906203823 79 21 4.0 9.0 0.00 0.04 0.01 58 1016.8
20260906203319 79 60 6.0 10.0 0.00 0.04 0.01 57 1016.8
20260906202829 79 47 6.0 11.0 0.00 0.04 0.01 57 1016.7
20260906202322 79 38 7.0 11.0 0.00 0.04 0.01 53 1016.7
20260906201815 79 34 5.0 13.0 0.00 0.04 0.01 56 1016.6
20260906201328 79 83 6.0 11.0 0.00 0.04 0.01 57 1016.7
20260906200821 79 34 5.0 11.0 0.00 0.04 0.01 58 1016.7
20260906200334 79 56 6.0 11.0 0.00 0.04 0.01 60 1016.7
20260906195826 79 51 5.0 12.0 0.00 0.04 0.01 60 1016.6
20260906195339 79 34 5.0 11.0 0.00 0.04 0.01 59 1016.7
20260906194814 79 32 6.0 12.0 0.00 0.04 0.01 57 1016.7
20260906194327 79 20 6.0 12.0 0.00 0.04 0.01 59 1016.8
20260906193820 79 46 8.0 12.0 0.00 0.04 0.01 57 1016.7
20260906193312 79 14 7.0 12.0 0.00 0.04 0.01 59 1016.8
20260906192826 79 55 6.0 12.0 0.00 0.04 0.01 62 1016.8
20260906192318 79 44 6.0 12.0 0.00 0.04 0.01 57 1016.8
20260906191811 79 47 5.0 12.0 0.00 0.04 0.01 58 1016.8
20260906191344 79 317 6.0 12.0 0.00 0.04 0.01 59 1016.8
20260906190815 79 36 8.0 12.0 0.00 0.04 0.01 60 1016.8
20260906190311 79 52 7.0 13.0 0.00 0.04 0.01 60 1016.9
20260906185824 79 46 7.0 13.0 0.00 0.04 0.01 57 1016.8
20260906185318 79 46 8.0 14.0 0.00 0.04 0.01 58 1016.8
20260906184810 78 34 5.0 14.0 0.00 0.04 0.01 64 1016.8
20260906184343 79 41 9.0 13.0 0.00 0.04 0.01 61 1016.9
20260906183815 78 338 8.0 14.0 0.00 0.04 0.01 65 1016.9
20260906183327 78 48 7.0 14.0 0.00 0.04 0.01 62 1016.9
20260906182840 78 53 7.0 16.0 0.00 0.04 0.01 63 1016.9
20260906182312 78 16 9.0 16.0 0.00 0.04 0.01 63 1017.0
20260906181829 78 26 7.0 14.0 0.00 0.04 0.01 65 1017.0
20260906181322 78 29 4.0 12.0 0.00 0.04 0.01 63 1017.0
20260906180814 78 68 6.0 14.0 0.00 0.04 0.01 67 1017.1
20260906180326 78 39 6.0 14.0 0.00 0.04 0.01 65 1017.0
20260906175819 78 28 8.0 14.0 0.00 0.04 0.01 66 1017.1
20260906175312 78 47 7.0 11.0 0.00 0.04 0.01 63 1017.0
20260906174825 78 48 5.0 13.0 0.00 0.04 0.01 64 1017.0
20260906174318 78 44 7.0 13.0 0.00 0.04 0.01 65 1017.0
20260906173815 78 44 8.0 12.0 0.00 0.04 0.01 65 1017.1
20260906173327 77 58 4.0 13.0 0.00 0.04 0.01 67 1017.2
20260906172820 77 51 9.0 13.0 0.00 0.04 0.01 65 1017.2
20260906172333 77 72 7.0 14.0 0.00 0.04 0.01 66 1017.2
20260906171824 77 54 5.0 12.0 0.00 0.04 0.01 69 1017.1
20260906171317 77 44 6.0 12.0 0.00 0.04 0.01 68 1017.1
20260906170850 77 25 7.0 13.0 0.00 0.04 0.01 65 1017.3
20260906170321 77 69 7.0 13.0 0.00 0.04 0.01 64 1017.4
20260906165813 77 67 8.0 12.0 0.00 0.04 0.01 67 1017.4
20260906165331 77 59 7.0 12.0 0.00 0.04 0.01 65 1017.4
20260906164822 77 44 8.0 12.0 0.00 0.04 0.01 67 1017.5
20260906164335 76 43 6.0 13.0 0.00 0.04 0.01 67 1017.5
20260906163827 76 60 7.0 16.0 0.00 0.04 0.01 67 1017.5
20260906163319 76 39 7.0 16.0 0.00 0.04 0.01 68 1017.5
20260906162812 76 41 5.0 11.0 0.00 0.04 0.01 72 1017.6
20260906162325 76 50 8.0 13.0 0.00 0.04 0.01 69 1017.5
20260906161818 76 51 6.0 13.0 0.00 0.04 0.01 68 1017.6
20260906161351 76 65 5.0 11.0 0.00 0.04 0.01 72 1017.7
20260906160843 75 25 6.0 12.0 0.00 0.04 0.01 68 1017.8
20260906160318 75 21 6.0 12.0 0.00 0.04 0.01 70 1017.9
20260906155811 75 65 6.0 10.0 0.00 0.04 0.01 71 1018.0
20260906155344 75 57 6.0 10.0 0.00 0.04 0.01 70 1017.9
20260906154815 75 50 7.0 10.0 0.00 0.04 0.01 70 1017.9
20260906154328 75 60 4.0 11.0 0.00 0.04 0.01 72 1017.9
20260906153821 74 23 6.0 12.0 0.00 0.04 0.01 73 1018.0
20260906153313 74 39 7.0 13.0 0.00 0.04 0.01 72 1017.8
20260906152825 74 57 7.0 13.0 0.00 0.04 0.01 73 1017.8
20260906152322 74 66 6.0 11.0 0.00 0.04 0.01 74 1017.9
20260906151835 74 53 6.0 11.0 0.00 0.04 0.01 74 1017.9
20260906151326 73 49 7.0 11.0 0.00 0.04 0.01 75 1017.9
20260906150819 73 14 5.0 10.0 0.00 0.04 0.01 77 1017.9
20260906150312 73 58 8.0 12.0 0.00 0.04 0.01 74 1017.8
20260906145823 72 35 4.0 12.0 0.00 0.04 0.01 76 1017.7
20260906145316 73 34 7.0 10.0 0.00 0.04 0.01 74 1017.7
20260906144830 72 45 4.0 9.0 0.00 0.04 0.01 76 1017.9
20260906144322 72 41 3.0 12.0 0.00 0.04 0.01 77 1017.7
20260906143819 72 74 7.0 12.0 0.00 0.04 0.01 74 1017.7
20260906143312 72 79 7.0 13.0 0.00 0.04 0.01 76 1017.7
20260906142823 71 48 7.0 13.0 0.00 0.04 0.01 76 1017.6
20260906142335 71 46 7.0 13.0 0.00 0.04 0.01 76 1017.6
20260906141847 71 58 8.0 13.0 0.00 0.04 0.01 77 1017.4
20260906141319 71 27 8.0 12.0 0.00 0.04 0.01 77 1017.4
20260906140811 71 58 6.0 14.0 0.00 0.04 0.01 80 1017.3
20260906140345 71 37 9.0 14.0 0.00 0.04 0.01 78 1017.2
20260906135816 71 46 7.0 12.0 0.00 0.04 0.01 78 1017.3
20260906135312 70 77 5.0 11.0 0.00 0.04 0.01 83 1017.2
20260906134825 70 75 7.0 10.0 0.00 0.04 0.01 82 1017.2
20260906134317 69 49 6.0 11.0 0.00 0.04 0.01 83 1017.2
20260906133811 69 27 6.0 12.0 0.00 0.04 0.01 84 1017.1
20260906133324 69 53 7.0 12.0 0.00 0.04 0.01 84 1017.1
20260906132816 69 63 8.0 14.0 0.00 0.04 0.01 84 1017.2
20260906132329 69 53 7.0 14.0 0.00 0.04 0.01 83 1017.2
20260906131842 68 35 5.0 10.0 0.00 0.04 0.01 86 1017.1
20260906131314 68 49 7.0 10.0 0.00 0.04 0.01 86 1017.1
20260906130811 68 37 5.0 10.0 0.00 0.04 0.01 86 1017.1
20260906130344 68 30 6.0 9.0 0.00 0.04 0.01 87 1017.0
20260906125815 68 60 5.0 8.0 0.00 0.04 0.01 86 1017.0
20260906125328 67 32 5.0 10.0 0.00 0.04 0.01 87 1016.9
20260906124821 67 34 4.0 10.0 0.00 0.04 0.01 88 1016.9
20260906124314 67 23 4.0 10.0 0.00 0.04 0.01 88 1016.8
20260906123827 67 57 4.0 10.0 0.00 0.04 0.01 89 1016.8
20260906123340 66 53 5.0 8.0 0.00 0.04 0.01 89 1016.7
20260906122832 66 53 3.0 8.0 0.00 0.04 0.01 90 1016.6
20260906122343 66 34 3.0 8.0 0.00 0.04 0.01 90 1016.6
20260906121819 66 37 2.0 6.0 0.00 0.04 0.01 91 1016.6
20260906121332 65 45 3.0 6.0 0.00 0.04 0.01 92 1016.5
20260906120824 65 30 3.0 6.0 0.00 0.04 0.01 92 1016.5
20260906120336 65 44 4.0 6.0 0.00 0.04 0.01 92 1016.4
20260906115828 65 352 4.0 6.0 0.00 0.04 0.01 93 1016.3
20260906115321 64 15 2.0 5.0 0.00 0.04 0.01 93 1016.3
20260906114814 64 42 3.0 5.0 0.00 0.04 0.01 93 1016.2
20260906114327 64 37 3.0 5.0 0.00 0.04 0.01 93 1016.1
20260906113820 64 46 3.0 6.0 0.00 0.04 0.01 92 1016.0
20260906113317 64 32 3.0 6.0 0.00 0.04 0.01 92 1015.9
20260906112830 64 39 4.0 7.0 0.00 0.04 0.01 92 1015.9
20260906112323 64 27 5.0 7.0 0.00 0.04 0.01 93 1015.9
20260906111835 64 28 4.0 6.0 0.00 0.04 0.01 93 1015.9
20260906111327 64 32 4.0 6.0 0.00 0.04 0.01 93 1015.9
20260906110820 64 27 3.0 6.0 0.00 0.04 0.01 93 1015.9
20260906110313 64 27 4.0 7.0 0.00 0.04 0.01 93 1015.8
20260906105826 64 34 4.0 7.0 0.00 0.04 0.01 93 1015.7
20260906105318 65 17 4.0 6.0 0.00 0.04 0.01 92 1015.6
20260906104815 65 34 4.0 7.0 0.00 0.05 0.01 92 1015.5
20260906104328 65 46 4.0 8.0 0.00 0.05 0.01 92 1015.5
20260906103821 65 57 4.0 10.0 0.00 0.05 0.01 92 1015.4
20260906103314 65 46 5.0 10.0 0.00 0.05 0.01 92 1015.4
20260906102827 65 34 6.0 9.0 0.00 0.05 0.01 92 1015.3
20260906102320 65 53 5.0 9.0 0.00 0.05 0.01 92 1015.2
20260906101813 65 34 6.0 8.0 0.00 0.05 0.01 93 1015.2
20260906101325 65 57 4.0 8.0 0.00 0.05 0.01 93 1015.2
20260906100822 65 37 4.0 10.0 0.00 0.05 0.01 93 1015.1
20260906100315 65 28 5.0 10.0 0.00 0.05 0.01 93 1015.1
20260906095849 65 28 4.0 8.0 0.00 0.05 0.01 93 1015.1
20260906095320 65 46 4.0 8.0 0.00 0.05 0.01 93 1015.0
20260906094813 65 40 3.0 7.0 0.01 0.05 0.01 93 1015.0
20260906094325 65 46 3.0 8.0 0.01 0.05 0.01 93 1015.1
20260906093819 66 39 3.0 9.0 0.01 0.05 0.01 94 1015.0
20260906093311 66 33 4.0 9.0 0.01 0.05 0.01 94 1015.0
20260906092827 66 65 4.0 9.0 0.01 0.05 0.01 94 1015.0
20260906092320 66 32 4.0 8.0 0.01 0.05 0.01 94 1015.0
20260906091813 66 8 4.0 8.0 0.01 0.05 0.01 94 1014.9
20260906091346 66 41 4.0 9.0 0.01 0.05 0.01 95 1014.9
20260906090816 66 38 4.0 9.0 0.01 0.05 0.01 95 1014.9
20260906090329 66 34 4.0 8.0 0.01 0.05 0.01 95 1014.9
20260906085822 66 51 4.0 10.0 0.01 0.05 0.01 95 1014.7
20260906085315 66 39 5.0 10.0 0.00 0.04 0.00 95 1014.7
20260906084812 66 30 5.0 9.0 0.00 0.04 0.00 96 1014.6
20260906084325 66 23 5.0 9.0 0.00 0.04 0.00 96 1014.7
20260906083817 66 28 5.0 8.0 0.00 0.04 0.00 96 1014.7
20260906083311 66 30 4.0 7.0 0.00 0.04 0.00 96 1014.6
20260906082823 67 23 5.0 7.0 0.00 0.04 0.00 96 1014.7
20260906082317 67 55 3.0 7.0 0.00 0.04 0.00 96 1014.6
20260906081829 67 46 4.0 7.0 0.00 0.04 0.00 96 1014.5
20260906081322 67 44 3.0 9.0 0.00 0.04 0.00 96 1014.5
20260906080819 67 49 4.0 7.0 0.00 0.04 0.00 96 1014.5
20260906080311 67 11 5.0 7.0 0.00 0.04 0.00 96 1014.5
20260906075824 67 32 4.0 8.0 0.00 0.04 0.00 96 1014.6
20260906075318 68 12 4.0 11.0 0.00 0.04 0.00 96 1014.6
20260906074810 68 49 6.0 11.0 0.00 0.04 0.00 96 1014.6
20260906074324 68 60 4.0 7.0 0.00 0.04 0.00 96 1014.6
20260906073816 68 42 4.0 12.0 0.00 0.04 0.00 96 1014.5
20260906073329 69 27 6.0 12.0 0.00 0.04 0.00 96 1014.5
20260906072826 69 49 6.0 10.0 0.00 0.04 0.00 96 1014.5
20260906072318 69 23 6.0 12.0 0.00 0.04 0.00 96 1014.5
20260906071810 69 51 4.0 9.0 0.00 0.04 0.00 96 1014.6
20260906071343 69 62 5.0 9.0 0.00 0.04 0.00 96 1014.6
20260906070814 70 39 5.0 8.0 0.00 0.04 0.00 96 1014.6
20260906070347 70 43 5.0 8.0 0.00 0.04 0.00 96 1014.6
20260906065819 70 42 4.0 9.0 0.00 0.04 0.00 96 1014.8
20260906065311 70 24 4.0 9.0 0.00 0.04 0.00 96 1014.8
20260906064824 70 26 4.0 8.0 0.00 0.04 0.00 96 1014.7
20260906064321 70 61 4.0 7.0 0.00 0.04 0.00 96 1014.6
20260906063813 70 51 4.0 8.0 0.00 0.04 0.00 96 1014.7
20260906063326 71 41 4.0 8.0 0.00 0.04 0.00 96 1014.7
20260906062819 71 51 3.0 8.0 0.00 0.04 0.00 96 1014.7
20260906062332 71 49 5.0 8.0 0.00 0.04 0.00 96 1014.8
20260906061824 71 42 3.0 8.0 0.00 0.04 0.00 96 1014.8
20260906061317 72 9 4.0 8.0 0.00 0.04 0.00 97 1014.8
20260906060825 72 20 4.0 8.0 0.00 0.04 0.00 97 1014.8
20260906060318 72 51 3.0 6.0 0.00 0.04 0.00 97 1014.8
20260906055815 72 37 3.0 5.0 0.00 0.04 0.00 97 1014.8
20260906055328 72 56 3.0 5.0 0.00 0.04 0.00 97 1014.8
20260906054821 72 41 3.0 7.0 0.00 0.04 0.00 97 1014.7
20260906054314 72 49 4.0 7.0 0.00 0.04 0.00 97 1014.8
20260906053847 72 37 4.0 7.0 0.00 0.04 0.00 97 1014.7
20260906053318 72 47 2.0 8.0 0.00 0.04 0.00 97 1014.6
20260906052811 72 57 5.0 8.0 0.00 0.04 0.00 97 1014.6
20260906052324 72 43 3.0 7.0 0.00 0.04 0.00 97 1014.6
20260906051821 72 56 3.0 6.0 0.00 0.04 0.00 97 1014.5
20260906051314 72 51 3.0 8.0 0.00 0.04 0.00 97 1014.6
20260906050827 72 53 5.0 8.0 0.00 0.04 0.00 97 1014.5
20260906050340 72 46 3.0 6.0 0.00 0.04 0.00 97 1014.4
20260906045831 72 47 4.0 6.0 0.00 0.04 0.00 97 1014.4
20260906045323 72 43 3.0 6.0 0.00 0.04 0.00 97 1014.5
20260906044816 72 39 3.0 7.0 0.00 0.04 0.00 97 1014.3
20260906044329 72 65 3.0 11.0 0.00 0.04 0.00 97 1014.3
20260906043822 72 20 5.0 10.0 0.00 0.04 0.00 97 1014.2
20260906043318 72 48 4.0 10.0 0.00 0.04 0.00 97 1014.0
20260906042811 72 360 2.0 6.0 0.00 0.04 0.00 97 1014.0
20260906042344 72 41 3.0 6.0 0.00 0.04 0.00 97 1014.0
20260906041816 73 28 2.0 6.0 0.00 0.04 0.00 97 1014.0
20260906041329 73 20 4.0 6.0 0.00 0.04 0.00 96 1013.9
20260906040822 73 36 2.0 5.0 0.00 0.04 0.00 96 1013.9
20260906040314 73 18 3.0 5.0 0.00 0.04 0.00 96 1013.8
20260906035828 73 46 3.0 5.0 0.00 0.04 0.00 96 1013.7
20260906035320 73 51 2.0 5.0 0.00 0.04 0.00 96 1013.7
20260906034817 73 46 2.0 4.0 0.00 0.04 0.04 96 1013.7
20260906034310 73 58 1.0 3.0 0.00 0.04 0.04 96 1013.7
20260906033823 73 15 1.0 5.0 0.00 0.04 0.04 96 1013.7
20260906033316 73 33 2.0 6.0 0.00 0.04 0.04 96 1013.8
20260906032829 73 44 3.0 6.0 0.00 0.04 0.04 96 1013.8
20260906032321 73 46 1.0 4.0 0.00 0.04 0.04 96 1013.8
20260906031814 73 32 2.0 4.0 0.00 0.04 0.04 96 1013.9
20260906031311 73 30 1.0 4.0 0.00 0.04 0.04 96 1013.8
20260906030823 73 18 1.0 6.0 0.00 0.04 0.04 97 1013.9
20260906030316 73 27 2.0 6.0 0.00 0.04 0.04 97 1013.8
20260906025829 73 32 1.0 5.0 0.00 0.04 0.04 97 1013.8
20260906025321 73 24 1.0 3.0 0.00 0.04 0.04 97 1013.9
20260906024814 73 21 1.0 3.0 0.00 0.04 0.04 97 1013.9
20260906024326 73 22 2.0 3.0 0.00 0.04 0.04 97 1013.9
20260906023819 73 49 0.0 1.0 0.00 0.04 0.04 97 1013.8
20260906023316 73 49 0.0 1.0 0.00 0.04 0.04 97 1013.9
20260906022850 73 46 0.0 3.0 0.00 0.04 0.04 96 1014.0
20260906022321 73 46 1.0 4.0 0.00 0.04 0.04 96 1014.0
20260906021813 73 52 1.0 4.0 0.00 0.04 0.04 96 1013.9
20260906021327 73 25 1.0 3.0 0.00 0.04 0.04 96 1013.9
20260906020820 73 22 0.0 2.0 0.00 0.04 0.04 96 1013.9
20260906020332 73 16 1.0 5.0 0.00 0.04 0.04 96 1013.9
20260906015823 73 34 2.0 5.0 0.00 0.04 0.04 96 1013.9
20260906015316 73 37 1.0 4.0 0.00 0.04 0.04 96 1013.9
20260906014849 73 46 2.0 4.0 0.00 0.04 0.04 96 1013.9
20260906014325 73 58 2.0 5.0 0.00 0.04 0.04 96 1013.9
20260906013817 73 49 1.0 3.0 0.00 0.04 0.04 96 1013.9
20260906013310 72 41 0.0 1.0 0.00 0.04 0.04 96 1013.9
20260906012820 72 42 0.0 1.0 0.00 0.04 0.04 96 1013.7
20260906012333 72 41 0.0 0.0 0.00 0.04 0.04 96 1013.5
20260906011824 72 41 0.0 0.0 0.00 0.04 0.04 96 1013.5
20260906011317 72 41 0.0 0.0 0.00 0.04 0.04 96 1013.5
20260906010830 72 41 0.0 0.0 0.00 0.04 0.04 96 1013.4
20260906010323 73 41 0.0 0.0 0.00 0.04 0.04 96 1013.3
20260906005819 73 42 0.0 0.0 0.00 0.04 0.04 96 1013.3
20260906005312 73 41 0.0 0.0 0.00 0.04 0.04 96 1013.4
20260906004845 73 41 0.0 0.0 0.00 0.04 0.04 96 1013.3
20260906004317 73 42 0.0 0.0 0.00 0.04 0.04 95 1013.4
20260906003830 73 41 0.0 0.0 0.00 0.04 0.04 95 1013.3
20260906003323 73 41 0.0 0.0 0.00 0.04 0.04 95 1013.2
20260906002816 73 41 0.0 0.0 0.02 0.04 0.04 95 1013.2
20260906002328 73 41 0.0 0.0 0.03 0.04 0.04 95 1013.2
20260906001825 73 41 0.0 0.0 0.03 0.04 0.04 95 1012.9
20260906001318 73 42 0.0 3.0 0.03 0.04 0.04 95 1012.8
20260906000811 73 42 0.0 3.0 0.03 0.04 0.04 95 1012.6
20260906000326 73 34 0.0 3.0 0.03 0.04 0.04 94 1012.6
20260905235817 74 24 0.0 4.0 0.03 0.04 0.04 94 1012.4
20260905235329 74 20 0.0 5.0 0.03 0.04 0.04 94 1012.4
20260905234842 74 48 1.0 5.0 0.03 0.04 0.04 93 1012.4
20260905234314 74 47 1.0 4.0 0.03 0.04 0.04 92 1012.6
20260905233811 75 36 1.0 6.0 0.03 0.04 0.04 91 1012.7
20260905233324 75 3 0.0 8.0 0.03 0.04 0.04 89 1012.7
20260905232817 76 38 4.0 8.0 0.01 0.02 0.02 86 1012.7
20260905232330 77 59 3.0 8.0 0.00 0.01 0.01 84 1012.8
20260905231822 78 37 5.0 12.0 0.00 0.01 0.01 81 1013.1
20260905231336 79 36 6.0 11.0 0.00 0.01 0.01 78 1013.2
20260905230827 80 28 6.0 14.0 0.00 0.01 0.01 77 1013.2